RH
8 10 7 9 6 9 28 28 41 62 75 79 75 87 99 92 70 62 67 59 39 20 16 12 13 18 16 18 21 22 38 60 59 45 31 20 14 17 19 15 25 34 35 42 31 16 28 42 35 27 26 28 35 42 48 58 65 74 88 98 101 98 95 95 99 102 100 99 87 62 59 67 71 90 100 100 100 100 101 93 75 52 43 37 26 21 22 20 19 20 20 24 20 24 36 46 46
14 9 12 26 18 21 60 65 66 73 78 91 88 85 90 88 72 63 66 50 26 15 13 13 20 18 19 26 18 24 58 76 63 38 21 17 14 15 17 18 32 36 29 36 34 18 25 35 30 27 27 27 30 41 53 52 57 81 100 102 100 101 101 101 104 103 99 100 98 74 63 78 90 100 99 99 100 98 102 89 61 48 45 35 27 21 21 20 14 16 20 23 20 23 32 41 46
38 18 35 59 39 33 66 72 70 66 67 89 93 89 97 100 97 89 64 33 17 13 15 22 22 17 20 23 25 40 74 92 74 43 20 17 16 16 19 24 35 30 24 35 37 26 26 29 29 30 31 35 39 47 59 54 56 87 101 98 99 99 100 100 101 103 101 99 102 92 80 89 98 101 97 99 101 90 92 84 62 49 41 34 28 21 20 19 13 13 20 23 21 24 30 37 44
60 29 55 75 53 50 71 74 72 76 82 95 100 100 100 100 104 88 44 16 14 16 22 26 17 18 18 27 61 61 62 80 68 45 24 20 22 20 18 24 34 27 30 39 37 35 35 33 33 34 32 34 38 50 65 60 60 89 101 97 102 98 99 100 99 101 101 100 101 100 95 91 94 102 99 100 102 90 92 92 76 55 42 35 26 20 19 17 13 12 20 25 23 25 27 35 42
71 43 62 84 81 86 95 94 92 97 97 91 96 100 96 99 101 69 27 15 19 22 24 22 16 21 19 40 81 58 48 66 48 33 26 25 28 27 19 20 30 30 38 39 38 41 40 37 37 39 34 29 35 53 69 68 72 93 101 98 101 99 98 99 99 99 100 101 99 101 99 92 94 101 99 99 102 100 96 90 83 67 48 35 24 21 18 16 13 11 22 25 25 25 26 36 39
78 66 71 90 99 101 100 103 104 102 99 93 99 102 97 102 97 57 24 24 24 23 20 17 19 24 24 40 61 44 49 57 36 29 26 28 31 35 29 21 25 32 43 38 38 42 39 40 40 42 36 32 41 54 62 72 88 97 103 99 97 103 94 91 101 99 98 102 100 100 100 98 100 100 100 99 101 102 85 76 86 76 51 34 24 21 16 16 12 11 23 26 26 26 29 36 38
70 79 77 91 98 100 99 100 103 100 101 101 101 101 99 100 95 61 31 30 26 23 19 18 28 40 39 33 40 43 58 56 38 32 26 34 35 40 40 30 25 26 42 40 39 40 38 43 43 46 39 40 52 59 58 70 89 84 84 83 83 92 71 66 95 101 98 104 99 97 101 100 102 99 100 100 100 102 87 82 96 81 53 35 23 20 16 15 12 13 23 28 30 29 32 36 43
67 85 84 98 99 99 100 98 100 99 100 100 100 99 101 96 91 73 41 29 24 22 18 16 30 43 39 35 49 48 52 52 41 34 29 39 39 43 45 39 30 20 36 40 39 39 39 43 46 56 48 43 54 68 65 64 83 75 58 58 62 66 46 43 79 98 99 101 85 87 101 98 101 100 99 101 99 102 95 91 99 83 52 33 24 19 16 15 14 15 24 32 31 29 32 38 56
67 73 74 93 102 101 100 101 100 99 100 101 102 98 104 91 85 82 45 28 29 36 33 16 19 25 21 44 78 62 45 48 42 37 30 37 40 44 44 44 40 24 34 42 40 39 40 43 49 63 57 46 51 65 67 62 81 76 52 50 52 50 43 39 60 88 103 97 70 77 101 99 100 100 99 102 101 102 98 97 100 81 50 33 25 19 16 18 16 17 29 33 28 30 33 45 73
53 53 54 67 88 102 100 102 100 100 101 102 102 98 105 82 80 92 49 29 44 75 74 30 16 19 16 48 92 72 40 41 39 35 30 36 40 44 45 44 42 30 36 43 41 39 39 46 50 58 59 52 50 60 71 69 72 67 53 54 52 49 51 46 54 77 97 89 62 75 98 99 100 99 101 102 103 99 94 102 99 76 50 34 25 19 17 20 19 21 31 32 29 31 38 61 90
31 42 48 57 78 96 96 101 101 100 99 100 102 100 105 70 66 93 62 41 57 85 75 35 24 25 25 40 65 54 34 36 36 34 31 35 37 42 46 44 43 37 39 42 41 39 41 51 50 51 58 55 53 69 84 76 65 57 53 57 62 67 65 55 53 58 70 68 64 88 99 99 101 97 98 97 101 99 95 101 95 73 49 36 27 20 18 21 22 22 30 33 30 36 57 88 100
20 28 41 63 81 87 85 92 97 101 101 100 101 102 100 65 60 85 68 56 70 77 65 57 45 38 61 66 52 38 34 38 37 36 33 34 36 38 44 46 47 43 44 44 42 39 42 51 52 51 55 55 59 78 82 65 58 52 46 63 81 89 82 66 61 53 52 60 76 98 100 98 95 90 91 84 86 92 96 96 89 70 48 37 28 22 20 23 25 22 30 31 31 52 83 102 98
17 18 27 43 56 67 74 80 83 90 100 100 99 102 89 68 79 91 75 71 80 76 77 86 60 59 98 93 64 42 35 38 40 39 35 37 36 37 43 46 48 47 48 46 44 41 41 46 52 56 55 51 59 71 60 42 46 42 45 78 95 97 96 81 75 65 55 72 92 98 99 104 95 87 88 87 87 86 96 95 76 60 49 39 29 27 22 25 27 21 30 29 41 79 99 101 98
16 14 18 25 31 42 55 63 63 63 82 92 89 88 72 61 75 77 71 81 84 76 86 93 73 86 102 79 57 39 33 39 45 44 40 42 40 41 44 44 43 46 49 45 43 40 38 44 51 55 52 50 60 64 43 32 39 37 56 90 89 89 105 97 90 81 68 81 96 98 101 96 81 84 94 100 93 81 97 88 52 46 45 38 34 29 25 30 27 23 29 29 61 99 100 99 101
15 13 13 17 21 26 35 45 50 43 51 67 65 63 57 49 54 51 52 66 75 76 84 83 75 95 100 84 62 42 60 76 67 52 44 46 45 46 46 44 37 38 44 40 37 36 35 41 47 50 49 48 56 53 35 38 42 41 74 98 82 80 98 97 94 95 85 86 95 100 97 78 71 88 96 93 84 83 101 76 39 45 40 34 36 28 30 32 25 27 25 34 83 105 97 102 103
11 12 12 14 17 18 24 30 36 35 34 43 44 45 46 41 39 40 43 49 58 63 73 81 81 95 99 94 74 53 77 99 78 49 43 49 49 48 49 46 35 35 42 40 35 33 36 35 37 44 47 47 48 45 37 43 42 48 83 95 84 83 86 79 81 95 95 92 93 90 83 80 89 101 95 89 91 97 95 58 39 53 41 30 30 28 32 30 28 28 22 50 94 98 94 104 104
9 10 12 14 16 13 17 20 25 30 30 32 34 34 35 33 31 32 39 43 49 51 65 88 96 102 97 89 89 78 69 69 57 41 40 49 51 50 53 48 37 40 44 45 40 33 38 31 26 36 47 50 47 47 41 42 40 52 81 84 81 85 76 59 64 90 101 101 97 86 81 86 96 101 98 97 100 97 79 55 55 62 44 28 30 33 29 31 32 23 40 78 93 94 97 100 101
8 9 10 12 13 13 15 16 18 23 27 31 31 30 28 28 29 29 33 36 44 47 55 85 100 101 102 96 98 93 67 45 38 38 40 47 52 50 54 50 39 44 45 47 45 34 35 30 23 28 44 52 49 50 46 45 40 57 92 84 69 72 60 46 55 77 91 101 102 97 96 93 95 100 100 99 101 95 84 81 78 65 43 30 37 38 29 35 29 24 64 91 93 97 96 98 96
7 7 9 10 10 14 16 14 14 16 20 26 30 32 31 31 30 29 34 34 39 42 44 73 96 93 101 103 78 57 46 37 33 35 38 44 49 49 54 53 42 45 44 46 49 39 31 29 25 25 40 51 51 52 50 48 38 58 97 83 63 69 57 45 57 65 69 87 98 100 101 99 100 104 102 99 101 99 100 101 83 61 43 33 43 45 38 42 28 26 61 85 94 85 79 98 94
6 6 7 9 9 11 13 12 11 13 14 17 22 27 30 34 36 37 40 39 43 47 42 63 97 98 98 104 80 46 31 30 33 33 35 41 46 48 54 55 49 46 43 45 51 47 33 28 28 26 34 46 52 53 52 47 40 59 89 79 59 60 49 36 52 62 61 74 92 100 100 101 101 104 102 98 100 99 100 93 70 55 40 33 48 55 49 53 40 24 53 89 88 60 66 95 90
5 5 6 6 8 9 10 11 10 11 12 13 15 18 25 29 36 42 40 44 61 69 55 57 92 105 95 101 98 79 58 38 31 32 32 37 41 46 52 58 57 50 47 45 48 52 44 34 29 28 28 39 52 54 52 45 44 59 75 74 50 38 38 31 43 57 67 78 82 91 98 101 99 101 100 98 104 100 90 73 57 52 39 36 50 59 55 56 50 37 70 102 84 61 69 88 85
5 5 5 5 6 7 8 10 10 11 10 11 12 13 18 19 27 36 33 42 62 70 61 56 84 105 94 94 101 99 93 62 34 32 33 33 38 43 48 58 59 51 47 44 46 53 54 46 32 26 25 33 48 53 53 41 43 60 68 67 39 28 33 34 48 54 77 96 80 82 97 102 99 100 99 100 105 93 75 55 49 50 37 38 49 59 52 45 62 76 97 101 86 78 64 79 89
5 5 5 5 5 6 7 8 9 10 10 11 11 11 13 13 20 27 28 33 37 48 57 58 80 100 83 80 98 101 102 88 57 39 33 33 35 39 44 51 54 50 46 44 48 52 56 57 41 26 22 29 43 51 52 38 39 56 64 58 32 31 33 37 71 79 91 101 79 77 92 100 100 101 101 103 103 84 65 49 47 45 33 40 51 60 44 36 78 101 99 88 75 63 45 74 92
5 5 4 5 5 5 5 6 7 8 9 10 10 11 11 13 16 19 26 28 26 36 47 50 65 82 71 69 94 102 98 100 89 57 35 34 35 36 40 45 49 47 46 47 53 56 55 61 50 28 21 26 39 49 50 38 38 48 56 52 29 30 34 37 75 90 83 74 68 82 94 98 100 103 100 95 96 88 76 62 51 38 33 51 59 58 35 39 92 102 91 85 63 41 35 62 78
6 5 4 5 4 5 5 5 6 6 8 9 10 10 10 13 14 14 21 24 23 26 30 35 43 60 75 78 90 102 99 100 103 77 45 38 38 40 42 45 49 45 45 48 53 59 56 60 54 30 19 22 33 46 50 40 39 46 50 47 25 25 48 59 73 72 54 40 48 74 89 93 96 100 89 75 82 90 86 71 52 34 39 59 60 51 26 41 92 91 81 73 44 32 40 57 75
7 6 6 5 4 5 4 5 5 5 6 6 8 10 10 12 14 13 12 16 20 21 24 27 37 64 91 99 100 102 101 98 95 83 65 53 46 48 49 47 51 49 46 45 48 56 54 57 54 31 17 19 28 42 50 42 40 48 50 42 21 23 58 72 63 48 35 36 41 50 66 82 92 86 67 69 85 91 81 61 46 37 44 57 51 39 23 49 88 74 64 51 29 37 51 58 73
7 6 6 6 6 6 4 5 5 5 6 5 7 7 9 11 13 14 9 12 18 20 22 24 56 94 97 95 98 87 81 80 71 63 67 68 60 53 49 45 49 53 51 48 47 50 50 52 49 32 17 15 23 35 46 43 39 49 54 41 21 29 55 51 33 26 27 41 47 45 57 77 92 79 57 72 87 82 68 53 53 50 48 50 37 31 35 60 79 63 52 38 32 50 55 57 72
7 7 7 7 6 7 6 6 5 5 5 4 6 5 7 9 10 12 9 12 14 18 18 16 55 91 79 69 71 68 72 78 72 60 58 62 59 49 41 39 43 50 52 53 52 49 49 45 36 27 17 12 17 26 39 41 35 44 50 35 22 33 45 29 17 21 26 41 51 51 57 63 74 72 57 67 74 67 61 62 70 58 46 42 25 27 41 45 43 44 47 36 38 52 51 64 85
8 7 7 7 7 7 6 6 6 5 5 5 5 5 6 6 9 12 13 15 13 20 22 21 52 70 62 56 55 68 79 76 73 64 51 43 39 34 30 30 33 40 47 55 59 55 51 40 24 21 17 12 14 20 31 37 33 39 43 28 22 30 27 17 17 23 29 46 55 55 58 50 50 56 54 61 64 57 60 69 66 49 40 32 23 36 43 32 25 31 39 35 38 48 44 55 79
9 8 8 7 7 9 7 9 11 7 6 6 5 7 6 5 11 12 14 20 18 22 28 36 59 68 64 56 55 70 68 65 74 67 49 31 25 25 23 23 24 29 38 52 62 61 56 38 18 18 17 11 13 17 27 36 32 37 40 25 21 26 19 14 19 23 29 44 54 60 69 61 53 55 55 58 57 53 56 57 48 41 35 24 35 53 42 30 30 27 30 31 36 51 49 40 59
10 9 9 8 8 12 9 8 13 12 8 6 6 9 7 4 9 12 12 18 22 20 25 34 44 61 69 54 49 51 46 62 76 64 47 30 24 25 21 20 20 23 29 42 57 63 60 38 16 16 17 12 12 15 25 36 32 36 39 23 20 24 19 16 16 19 25 36 46 54 68 71 65 61 57 53 51 49 47 44 41 35 27 33 55 57 38 33 33 30 31 31 36 54 62 50 51
10 9 9 9 8 9 8 6 10 15 13 10 10 9 11 10 7 16 14 14 29 26 18 27 37 58 72 65 58 44 46 75 75 60 53 37 31 28 23 22 19 20 23 30 47 60 61 42 18 15 17 12 13 14 22 34 33 36 37 24 22 24 20 19 16 17 21 29 37 41 54 64 62 57 57 56 51 48 44 39 35 28 32 52 60 47 38 37 33 36 33 33 42 54 69 65 46
9 9 9 9 9 8 8 8 7 13 14 14 17 13 19 20 8 14 15 12 36 38 20 27 43 54 60 73 76 48 47 66 61 67 68 47 40 33 26 28 24 20 20 25 40 56 62 47 21 15 18 12 13 13 18 31 33 36 36 24 23 25 23 21 15 16 18 22 26 30 41 51 52 50 51 54 50 47 40 32 27 33 48 54 49 42 41 41 39 38 33 36 47 60 81 73 47
8 8 8 8 9 8 8 8 7 10 10 13 19 15 18 23 11 9 10 9 24 30 25 31 39 38 37 53 60 47 48 47 45 72 76 51 45 42 38 39 32 24 21 25 36 50 60 50 25 14 17 12 12 12 15 29 32 35 36 26 25 25 24 23 15 16 20 22 21 22 31 39 46 46 44 45 42 38 30 27 33 43 49 45 42 43 40 40 38 34 41 52 59 78 90 62 59
9 8 8 8 8 8 8 8 7 8 9 11 14 15 19 25 20 11 9 11 12 14 23 36 44 45 50 56 54 53 60 60 64 73 64 49 49 57 58 50 39 31 27 27 32 44 53 46 25 14 17 12 12 12 13 27 33 34 34 28 29 27 23 22 15 14 21 24 22 19 23 29 35 38 36 34 30 27 26 33 42 42 41 40 39 38 38 42 50 62 76 80 74 79 67 34 61
11 10 9 8 7 8 7 7 8 7 8 10 10 14 17 18 20 17 13 13 11 11 13 28 45 46 55 74 76 70 61 63 73 66 56 57 57 64 63 50 43 37 32 28 26 34 41 36 22 14 16 12 12 12 12 25 33 35 35 26 27 27 21 20 15 14 17 20 19 18 20 22 24 27 25 24 24 27 34 39 40 38 37 38 35 37 51 65 76 82 69 53 41 36 27 17 50
13 12 12 11 9 9 8 8 7 7 7 8 10 14 16 14 18 24 24 17 13 11 4 18 44 46 55 78 87 88 77 71 81 76 66 59 51 55 62 61 55 42 32 27 23 25 27 25 19 16 15 12 13 11 11 25 32 34 36 25 20 24 21 18 16 13 14 16 17 17 18 19 18 20 20 23 30 34 38 39 37 38 37 36 42 55 69 71 63 49 31 25 24 27 33 28 40
14 14 14 13 13 11 11 10 9 9 8 7 8 11 18 19 21 29 30 22 17 15 11 26 59 72 72 71 69 86 98 95 97 87 67 60 61 64 72 80 74 53 34 25 23 22 21 20 18 17 15 12 13 12 11 24 34 35 35 25 18 23 23 20 19 15 12 12 14 15 15 16 17 20 24 29 34 35 36 37 38 39 38 43 56 65 63 50 40 37 36 39 38 41 51 55 67
15 16 16 14 15 13 12 12 11 11 10 9 9 9 13 15 20 29 30 28 25 23 19 27 67 91 82 70 63 72 91 100 103 83 59 67 84 83 80 83 79 62 38 27 28 24 20 19 17 17 16 13 13 13 12 22 33 34 34 27 18 23 23 19 19 17 16 13 11 15 14 16 20 22 28 30 30 33 34 38 40 39 43 52 57 54 46 40 46 61 70 70 63 52 42 49 71
16 16 17 16 17 16 14 14 12 13 12 11 11 10 10 9 14 17 19 24 20 21 22 26 66 86 69 71 72 74 87 96 99 76 46 59 82 83 83 82 72 58 46 38 35 28 21 19 17 17 17 14 14 14 12 21 32 33 35 28 19 24 25 17 15 16 21 18 11 14 16 18 22 23 25 26 27 31 34 38 40 42 46 46 44 44 43 47 60 79 94 97 92 81 59 41 41
19 19 18 17 20 18 15 15 13 13 13 15 17 16 14 13 18 15 15 22 15 18 21 26 64 72 62 75 66 67 81 70 75 79 61 72 93 94 91 80 57 53 69 65 45 34 27 21 19 18 18 14 15 17 13 20 32 32 34 30 19 23 28 21 16 15 18 21 17 16 18 18 20 20 21 23 25 28 33 38 39 42 45 38 37 46 47 54 70 84 97 101 100 98 85 60 38
23 24 25 23 22 18 16 15 14 14 14 16 17 17 15 16 26 25 21 25 19 22 21 24 50 50 61 89 65 65 88 68 71 95 90 90 102 103 91 71 54 65 92 85 61 47 32 27 24 19 19 16 15 18 15 23 33 31 34 34 22 22 30 26 19 16 15 19 24 21 18 18 19 19 20 21 23 27 32 36 38 40 41 34 35 47 52 61 77 89 98 101 99 98 93 79 54
29 30 30 28 24 20 19 16 14 15 15 16 17 26 37 36 35 27 27 41 33 21 16 19 34 31 57 100 81 74 97 89 83 95 102 101 93 85 73 65 74 90 98 90 77 60 41 42 37 25 22 17 18 21 18 25 32 32 36 36 25 20 28 31 23 18 14 15 21 21 21 23 21 19 20 22 24 29 32 33 34 37 36 30 29 39 51 62 75 87 98 92 76 71 73 69 53
32 32 29 26 25 23 21 18 16 17 18 21 24 37 53 51 40 28 39 68 58 30 20 21 29 33 61 102 97 81 82 84 93 98 95 81 68 75 77 74 80 83 92 99 82 61 59 61 48 37 28 16 24 27 18 25 33 34 37 37 30 22 26 37 34 25 18 15 15 14 17 20 20 20 20 22 25 28 32 32 31 33 32 27 24 28 37 47 52 62 82 80 57 46 47 43 39
31 31 28 25 26 24 21 20 17 19 21 21 26 40 51 46 39 35 50 75 70 48 45 55 64 65 75 97 102 92 66 47 65 84 75 60 70 91 87 78 75 69 88 99 72 65 85 75 49 42 30 23 37 32 18 25 33 35 38 36 34 28 29 45 58 54 40 34 29 23 21 18 17 22 20 19 21 22 26 28 27 28 29 24 20 20 25 33 35 38 56 61 45 35 36 39 38
35 34 31 27 29 27 24 23 20 21 20 19 37 62 73 62 45 39 50 73 86 79 77 88 98 96 95 99 101 97 72 43 55 82 86 82 91 95 87 89 87 74 87 87 65 84 102 68 46 44 32 40 53 33 20 29 33 37 40 35 38 40 37 50 83 90 65 49 44 38 34 28 23 22 21 19 17 18 19 21 24 25 26 23 19 20 23 27 29 35 46 42 31 31 35 42 41
43 42 40 36 37 36 31 27 23 22 21 30 55 73 82 78 58 47 54 77 99 101 97 102 104 102 100 100 102 101 92 79 72 78 85 89 92 94 95 97 88 81 91 76 60 96 105 60 50 53 38 58 71 39 23 31 33 37 40 35 40 51 49 60 94 102 73 50 47 49 43 37 36 31 28 26 20 19 17 16 20 21 23 23 20 22 24 26 28 33 40 32 24 29 32 37 37
45 45 45 44 45 43 40 34 29 27 29 45 60 59 68 77 64 56 64 83 102 101 100 104 102 104 102 99 103 103 100 91 68 53 59 79 98 96 80 77 87 91 78 48 52 101 102 59 57 62 48 68 84 51 26 28 32 36 41 38 44 62 72 82 99 102 86 62 61 76 60 39 43 40 35 36 31 26 19 14 18 21 23 23 21 21 22 30 36 33 35 31 25 26 28 31 31
44 43 43 44 44 43 45 46 43 40 38 45 47 38 49 58 45 47 60 73 92 99 102 105 100 102 102 99 104 102 95 95 88 70 57 68 86 78 66 77 93 87 64 53 72 93 83 62 61 59 54 75 89 62 34 29 31 35 43 44 53 76 93 100 100 99 100 83 75 85 56 27 38 37 29 36 38 35 27 18 17 18 23 24 21 21 24 33 38 32 31 32 26 25 28 29 29
42 41 39 39 39 41 46 49 48 49 47 48 42 24 30 40 27 37 61 65 68 80 98 106 99 99 102 98 100 93 75 70 81 83 77 81 85 84 95 97 81 77 76 70 62 56 63 73 61 45 55 85 93 70 45 32 30 50 70 70 74 91 99 102 100 98 103 96 87 84 56 37 46 41 32 35 36 40 40 36 32 26 26 26 23 24 26 31 34 28 27 29 26 24 25 27 28
39 38 38 37 36 37 41 41 41 49 55 56 48 31 39 54 36 30 50 55 48 54 74 90 88 91 103 102 95 81 70 73 82 87 93 95 92 93 94 75 67 84 73 42 41 61 82 82 51 33 56 91 92 69 52 34 28 63 95 94 94 100 98 100 101 100 103 100 96 93 79 69 65 51 40 34 33 37 40 43 46 41 33 28 28 32 30 29 32 31 26 24 24 23 24 27 27
38 37 36 36 36 36 35 35 36 41 47 51 48 40 47 56 39 27 39 47 46 39 40 61 73 72 82 96 95 76 73 94 102 98 98 92 86 82 66 53 68 78 46 31 66 92 88 67 38 29 58 91 85 62 54 38 27 62 94 99 101 99 95 101 100 99 103 101 99 100 97 93 84 69 55 45 40 39 37 36 41 43 38 33 34 32 30 31 31 30 26 23 23 24 24 25 26
35 36 36 35 37 38 36 35 35 34 38 42 41 40 41 39 31 33 39 41 46 40 31 43 58 61 69 86 95 85 83 97 103 103 100 87 75 67 69 78 74 53 38 58 94 98 78 55 29 28 65 93 81 63 58 42 29 49 67 78 91 89 89 100 100 98 101 100 100 101 100 100 99 93 87 75 57 47 54 53 41 35 33 36 39 30 29 39 34 26 24 20 22 26 25 26 27
33 32 35 35 35 38 37 36 36 33 37 41 40 41 42 41 37 35 40 42 43 43 44 52 54 63 83 93 90 90 96 99 101 103 98 87 69 50 55 64 50 50 72 91 102 96 73 45 23 38 77 96 91 80 73 55 32 27 29 37 56 68 81 97 99 99 102 100 100 100 99 102 102 100 99 88 67 59 72 74 59 52 45 40 44 44 46 51 41 34 32 22 19 24 23 25 29
40 36 36 34 33 36 36 37 37 34 37 40 41 41 39 41 38 33 48 65 67 63 66 78 80 78 91 97 84 80 88 91 96 99 93 84 68 43 31 31 45 80 100 101 104 88 60 44 46 70 88 94 98 90 90 83 43 15 17 21 31 47 70 94 100 99 100 100 101 100 99 101 100 99 96 90 83 76 75 74 75 88 81 52 46 56 61 64 57 47 40 28 25 29 26 25 29
43 46 45 38 34 35 33 36 37 34 37 38 37 37 36 39 37 31 41 56 75 92 92 95 101 97 98 98 84 75 78 88 98 99 95 88 75 61 42 37 73 107 101 99 98 70 55 55 65 91 96 91 96 87 98 101 49 16 22 18 24 44 64 89 101 100 100 99 101 100 99 100 99 100 98 97 100 95 86 77 79 98 97 76 72 68 57 62 65 52 45 45 45 43 36 31 29
39 44 48 48 50 51 42 35 34 34 37 38 39 37 33 36 38 36 38 36 49 75 87 94 102 101 101 101 96 92 87 93 103 100 99 97 91 82 57 43 75 98 93 99 80 53 71 71 57 88 103 94 95 93 105 98 46 30 36 22 29 51 63 82 92 97 101 98 99 99 98 100 99 100 100 98 102 103 99 91 88 95 93 91 101 83 51 51 56 47 48 57 57 47 39 40 38
41 43 48 50 57 64 58 49 46 44 42 40 40 36 33 38 41 39 41 39 40 53 73 91 98 96 98 102 105 98 82 83 91 88 93 101 97 83 59 39 46 58 69 83 64 50 73 59 36 73 106 99 94 99 111 88 38 35 45 32 40 55 64 76 79 88 100 99 99 99 99 101 99 98 100 99 101 103 101 98 98 100 94 94 100 75 44 41 45 45 48 47 49 51 49 52 47
Wind_Speed
12 13 15 17 19 21 21 21 20 18 16 17 18 16 14 16 21 22 23 22 21 19 18 17 15 13 12 11 10 9 8 7 7 9 11 13 12 12 13 13 14 15 15 14 16 18 19 19 21 22 22 22 22 21 21 23 25 25 23 21 19 18 17 16 15 16 17 15 11 11 8 7 8 9 9 9 9 4 4 9 11 14 16 17 20 22 25 24 26 25 16 11 11 9 9 12 15
9 12 15 16 19 21 20 20 20 19 16 14 15 16 14 14 20 23 23 22 20 19 17 16 14 13 12 10 9 8 8 7 7 8 10 12 12 12 13 12 12 13 14 15 16 19 20 21 24 24 24 23 22 22 21 22 25 24 22 20 18 17 18 17 15 15 15 14 12 10 9 6 5 7 6 8 10 8 9 12 12 14 17 18 20 23 26 26 30 28 17 10 9 8 9 11 15
9 12 15 15 17 19 18 19 19 19 17 13 11 12 10 9 15 18 21 21 19 19 16 15 14 12 11 10 9 7 8 8 8 8 9 10 11 12 12 12 12 13 14 15 17 19 20 22 25 25 24 24 23 23 21 22 24 23 20 17 15 17 20 19 17 15 13 14 13 9 8 5 4 5 4 7 8 8 10 12 12 13 16 18 20 24 26 27 32 29 17 10 8 8 9 11 14
10 12 14 14 14 16 16 17 17 17 17 17 12 9 9 11 16 17 19 19 18 17 15 15 14 12 11 10 9 7 8 8 8 8 8 9 10 11 12 13 13 13 14 15 17 19 20 23 25 23 23 23 22 22 20 22 24 21 16 14 14 16 18 19 18 15 11 13 15 12 9 5 3 4 6 10 8 7 9 11 13 13 16 19 22 24 26 27 32 29 16 9 8 8 9 12 14
11 12 13 14 15 15 15 16 16 15 16 18 14 11 12 11 18 18 18 17 17 16 14 14 13 12 11 10 9 8 8 8 9 8 8 8 9 11 12 13 13 14 15 17 19 21 22 23 24 22 22 22 21 19 19 21 23 19 13 13 15 14 14 17 19 15 11 11 14 14 12 7 3 5 9 14 10 6 7 11 14 14 17 20 22 24 26 27 30 27 15 8 8 9 10 12 14
12 12 13 14 14 14 15 17 16 16 15 16 16 15 14 12 15 16 16 16 14 14 13 13 12 12 10 9 8 8 9 9 10 8 8 8 8 10 11 13 14 14 15 17 19 22 24 25 24 23 24 23 20 17 18 20 21 18 12 14 17 14 15 18 17 14 11 10 12 14 14 10 5 7 12 14 9 6 7 10 13 14 17 20 23 24 26 26 27 24 13 8 8 9 11 13 14
13 13 15 15 14 14 16 17 16 16 16 16 16 16 16 13 11 12 13 13 12 12 12 12 12 11 10 9 9 9 9 10 10 8 8 9 9 10 11 14 14 14 15 16 20 22 25 25 25 25 25 23 19 17 19 20 20 18 15 17 18 16 20 20 15 13 12 11 11 12 13 10 5 9 13 14 12 11 10 9 10 13 17 20 24 25 25 23 23 20 11 8 8 9 11 12 14
15 15 15 15 14 16 18 18 17 16 16 18 16 14 16 14 11 12 13 12 11 11 12 12 12 11 10 10 10 10 10 10 10 9 9 9 10 11 11 13 14 14 15 17 20 22 24 25 26 25 25 24 20 18 19 21 21 20 20 20 20 20 22 20 15 13 11 13 14 11 11 8 6 11 14 14 14 12 10 9 8 12 16 20 24 25 23 20 19 16 9 7 7 8 9 12 15
17 17 16 15 15 16 18 19 19 17 16 19 17 13 15 14 12 14 14 13 11 11 13 13 12 12 11 11 11 10 10 11 11 10 10 10 11 11 12 13 13 14 15 17 20 21 23 24 25 24 25 25 20 19 19 21 21 22 23 22 24 24 20 17 15 11 9 13 14 10 9 5 8 13 14 13 11 9 9 8 7 12 16 20 23 23 21 17 18 14 7 7 7 7 9 13 17
18 18 18 18 17 16 18 18 19 18 17 20 19 16 15 14 15 17 16 15 13 13 14 14 12 12 12 12 11 10 11 12 12 11 10 10 11 11 12 13 13 14 16 18 21 21 22 23 24 24 26 26 22 19 19 21 23 24 26 27 30 26 18 15 12 11 11 14 12 9 6 7 12 14 16 16 13 10 7 7 9 13 16 19 21 20 18 15 17 13 6 6 6 7 10 15 18
21 20 21 21 19 18 19 18 17 17 19 19 19 19 16 15 17 18 17 18 16 16 15 14 13 12 12 13 13 11 11 13 14 13 11 10 10 11 12 12 13 15 17 19 21 22 22 22 24 25 25 27 24 20 20 23 25 27 29 29 30 24 17 14 9 11 14 16 11 7 8 12 15 18 20 21 17 9 6 9 12 14 15 16 17 17 15 14 17 12 5 5 6 7 12 17 16
24 23 23 21 19 19 20 20 18 17 18 19 17 19 18 16 18 20 20 19 18 18 16 16 15 13 13 14 15 14 13 14 15 14 13 11 10 10 11 12 13 15 17 20 21 22 21 22 25 25 25 27 25 22 23 26 28 30 32 30 27 22 18 16 11 11 13 13 9 8 12 16 19 20 21 20 16 9 7 11 13 13 13 13 14 15 14 14 17 11 4 5 6 8 14 15 14
25 25 25 23 21 20 21 21 21 18 17 17 18 18 18 18 21 23 22 20 19 20 18 16 15 12 13 16 16 15 14 15 15 15 14 13 11 10 11 12 13 15 17 20 21 22 21 23 25 25 25 27 25 23 26 29 30 32 33 28 24 23 21 19 15 13 10 8 6 10 14 16 17 17 18 18 15 10 8 10 12 13 12 11 12 13 13 14 16 10 4 4 6 10 12 13 14
26 26 27 26 25 23 22 23 23 23 19 17 18 19 19 21 23 24 22 21 21 21 19 17 16 14 15 17 17 16 16 16 16 16 15 15 13 11 10 11 12 14 16 19 21 22 22 23 25 25 25 28 25 24 27 29 30 32 31 25 24 25 22 21 18 14 9 7 8 10 14 15 14 15 18 17 13 10 9 10 12 12 12 12 12 13 12 13 15 9 3 3 6 9 11 13 15
28 28 28 29 28 27 26 25 24 26 24 20 19 21 21 23 24 23 23 23 21 20 19 17 17 16 16 17 18 17 17 16 14 15 15 16 15 13 12 12 12 13 15 18 19 21 22 22 24 25 25 27 25 25 28 28 31 32 28 24 25 25 22 22 20 15 11 11 13 13 15 16 14 16 15 11 9 8 9 10 12 13 13 12 12 12 11 11 13 8 2 3 6 8 12 14 15
31 30 30 31 31 30 29 27 26 26 27 25 22 23 23 23 23 23 24 23 21 20 19 18 17 18 18 19 19 19 18 16 14 15 16 16 16 15 13 13 13 13 15 18 20 20 20 21 23 24 25 26 25 26 27 28 32 32 27 25 26 25 25 25 22 18 13 13 16 16 16 16 14 14 10 8 7 9 11 14 15 14 14 13 11 10 9 10 11 6 2 3 5 7 11 14 16
34 33 33 33 33 32 31 30 29 28 28 28 26 26 25 24 24 24 25 24 22 21 20 18 17 20 21 21 21 20 19 19 18 16 16 16 16 17 15 14 13 13 16 19 22 22 21 21 23 24 25 25 26 28 28 29 32 32 26 25 27 26 28 27 23 18 14 13 18 17 15 15 14 13 11 10 10 13 15 16 15 12 13 12 9 8 8 8 10 4 3 2 5 7 10 14 16
36 36 36 36 35 33 33 33 32 31 30 30 29 29 28 26 25 24 25 26 25 23 21 19 18 21 21 20 21 21 21 21 20 18 16 16 17 17 16 14 13 14 16 20 22 23 22 23 24 25 25 25 28 29 29 29 32 32 25 26 29 28 28 27 22 18 15 14 19 18 16 15 15 14 13 12 11 14 16 13 10 11 13 11 7 8 8 8 9 2 4 2 6 9 11 14 15
38 39 39 38 37 35 34 34 34 34 34 33 32 31 30 28 27 26 26 28 27 25 23 22 20 20 19 21 24 24 24 24 22 20 18 17 18 18 17 15 14 15 17 20 22 23 23 24 25 26 26 27 29 30 29 29 32 32 25 28 32 28 28 26 21 17 15 14 16 16 15 16 16 14 14 14 9 8 8 6 8 12 13 10 7 9 9 8 7 3 5 3 6 8 11 12 13
40 40 41 40 39 38 36 36 36 36 36 36 35 34 33 31 29 28 28 28 28 27 27 24 22 20 20 23 27 27 26 26 25 23 21 19 18 18 18 17 16 17 18 20 22 23 23 24 26 27 27 28 30 30 30 30 32 31 27 30 34 30 30 27 21 18 15 14 14 13 11 11 13 13 13 13 11 9 7 7 12 15 14 11 9 11 10 9 5 3 4 2 5 8 9 11 12
40 41 43 42 41 40 39 39 38 38 38 38 37 36 35 33 32 32 31 29 28 29 29 27 26 26 22 22 26 29 29 28 26 24 23 21 20 19 19 19 19 19 20 21 22 24 23 24 26 27 28 29 30 31 31 32 32 32 31 33 36 33 30 26 21 19 16 13 13 13 11 9 10 12 12 13 15 16 16 16 18 15 14 12 11 11 9 8 3 4 3 1 6 8 8 10 12
39 42 43 43 42 42 42 42 41 41 40 39 39 37 37 36 36 36 35 32 30 29 30 30 30 30 24 22 24 28 30 29 26 25 24 23 22 21 21 21 21 22 23 23 24 24 24 25 27 27 28 28 30 31 31 33 33 33 34 35 38 34 30 26 21 18 15 13 11 12 12 11 11 13 14 16 18 21 22 21 18 15 14 12 11 12 9 5 1 4 3 2 6 7 8 10 11
39 41 42 42 43 43 44 45 44 43 42 42 40 39 39 39 39 38 36 36 34 31 31 31 31 31 29 28 26 25 27 28 26 26 25 25 24 23 23 23 24 25 25 25 24 25 26 26 27 27 28 28 29 31 32 33 33 33 35 36 38 34 30 26 20 17 15 14 13 12 12 14 15 16 16 17 19 21 22 21 19 16 13 12 11 12 9 3 3 3 3 3 5 6 7 9 12
38 40 40 41 42 44 45 46 46 46 45 44 43 42 42 41 41 39 36 36 36 35 33 31 31 30 29 31 30 26 27 28 28 27 27 26 26 25 24 25 26 27 27 27 25 26 27 27 28 28 27 28 29 31 32 33 33 34 36 37 37 34 28 24 20 16 15 15 13 12 13 15 18 19 21 22 21 20 19 19 18 15 12 12 12 12 9 3 6 4 2 2 6 6 7 8 11
37 38 39 40 42 43 45 45 46 47 47 47 46 45 44 43 43 41 39 37 36 36 35 33 31 31 31 33 32 29 28 28 27 27 28 28 27 27 26 26 27 28 28 27 26 26 27 28 28 27 27 28 29 31 32 33 33 34 37 37 37 33 26 22 18 16 15 13 11 11 13 15 17 19 21 22 21 17 15 16 17 13 11 12 12 10 7 8 9 3 1 3 5 5 7 8 10
36 36 37 39 40 41 42 44 46 47 48 48 49 48 47 45 45 44 43 41 37 36 36 33 30 30 33 33 31 31 31 30 28 28 29 29 29 28 28 27 28 28 29 28 27 27 28 28 27 26 27 28 28 30 31 33 34 36 37 38 38 33 25 21 19 16 14 10 8 10 13 14 15 15 17 18 15 12 11 13 13 11 11 12 12 8 7 12 10 4 1 3 4 4 6 8 9
36 36 36 37 37 39 41 43 45 47 48 49 50 50 49 49 47 46 45 43 39 37 36 31 27 29 33 33 32 32 33 34 34 34 32 31 30 30 30 29 29 29 29 29 28 28 28 27 26 25 26 27 27 29 30 32 34 36 37 38 39 34 26 23 20 15 11 8 8 9 9 11 10 11 14 13 11 10 10 11 10 10 11 11 10 6 10 14 10 6 3 1 3 4 6 8 8
38 38 38 37 37 38 40 42 44 46 48 49 50 50 51 51 50 48 47 45 43 40 38 35 33 37 39 38 36 35 33 34 35 36 34 33 33 32 32 30 30 30 30 29 29 28 28 26 25 25 26 26 26 28 29 31 33 35 36 37 38 34 28 25 21 14 9 7 8 8 7 7 8 10 12 12 11 11 11 10 10 10 10 9 7 6 11 11 8 6 3 2 2 4 6 7 7
39 39 39 39 39 40 41 42 43 44 45 47 49 50 51 51 50 50 48 47 45 42 40 39 39 41 41 40 37 34 33 33 34 35 35 35 35 34 33 32 31 31 30 29 29 29 28 26 25 25 25 26 26 27 29 30 32 33 35 36 36 33 30 27 20 14 10 7 6 6 5 5 6 8 10 11 12 12 11 10 10 9 8 6 5 9 10 7 6 4 2 4 5 5 6 7 7
38 39 40 40 40 41 42 42 42 43 43 45 46 48 51 51 51 51 49 47 46 44 43 43 42 41 40 39 37 34 32 32 34 35 36 36 37 36 34 33 32 31 30 29 29 29 28 27 25 25 26 26 26 27 28 30 31 33 34 35 35 34 32 28 19 12 8 6 6 6 5 5 5 5 6 8 10 10 9 8 8 7 6 5 10 11 8 7 4 2 4 6 7 6 7 8 11
38 38 39 40 41 42 43 43 42 41 42 44 44 46 50 51 50 50 51 49 47 47 47 46 45 42 39 39 39 37 33 34 36 36 36 37 37 37 35 34 33 32 30 29 29 28 28 27 26 25 25 26 26 26 28 29 30 32 33 33 35 35 32 27 20 13 7 4 5 6 7 6 5 4 4 5 6 6 6 7 7 6 6 10 12 9 8 6 3 1 4 6 6 7 8 10 13
37 37 38 39 41 42 43 43 43 42 42 43 43 45 47 49 50 49 50 50 48 49 50 48 47 43 40 38 39 38 35 36 37 35 36 37 37 37 36 35 33 32 31 29 29 28 28 27 26 26 25 25 25 25 27 28 29 31 32 32 34 35 32 27 21 15 8 4 3 4 7 7 6 5 4 4 5 5 6 6 6 7 11 13 11 9 7 4 1 1 5 6 5 6 6 10 13
35 36 37 38 40 41 42 42 43 43 43 43 43 45 45 46 49 48 48 50 50 49 50 50 48 45 43 40 40 40 40 40 38 35 36 35 35 37 36 35 33 33 31 30 29 29 28 27 26 25 25 24 24 24 25 26 27 29 30 30 32 33 31 27 22 17 11 6 3 1 5 6 7 6 5 5 5 5 5 6 8 13 15 13 11 9 6 3 1 3 5 5 6 4 4 8 13
32 34 34 36 37 39 40 40 41 42 43 43 43 44 44 44 47 47 46 48 51 50 49 49 49 48 46 44 44 44 44 45 42 36 34 34 35 36 36 34 33 33 32 31 29 29 28 27 27 25 24 24 23 23 24 25 25 27 27 27 30 32 29 26 23 18 12 9 7 3 4 5 6 7 7 6 6 5 6 11 15 17 15 13 11 8 6 3 2 3 4 4 5 3 5 7 9
26 28 30 32 34 35 37 38 38 39 40 42 43 44 44 43 44 45 46 47 49 50 49 48 48 46 43 43 44 44 44 43 42 39 36 36 35 34 34 34 33 32 32 31 30 30 29 28 27 25 24 23 22 22 23 23 23 25 26 25 27 30 28 25 23 19 14 12 11 8 7 8 8 8 8 8 8 10 14 19 19 17 15 13 10 8 5 3 3 2 3 3 3 4 6 4 4
20 21 23 25 27 29 32 34 36 37 38 39 41 42 43 44 44 44 45 46 47 48 49 48 47 46 43 40 39 40 42 40 39 40 38 36 34 33 36 36 35 34 33 32 31 31 30 29 27 25 24 23 21 21 21 21 22 23 23 23 25 27 26 24 22 19 16 13 12 10 11 11 11 12 12 13 16 19 22 21 19 17 15 12 10 8 6 6 5 4 4 4 3 4 4 2 7
16 16 17 19 20 23 25 27 29 32 34 37 39 41 42 44 44 44 44 45 46 46 47 46 45 46 45 42 37 33 36 38 36 35 35 36 36 36 37 36 36 37 36 35 33 32 31 29 27 25 24 22 20 19 20 19 20 21 21 21 23 25 24 22 21 19 17 15 14 14 14 16 18 19 20 22 24 24 23 21 19 16 14 11 10 9 8 7 7 7 7 7 6 4 4 5 8
13 13 14 15 16 17 19 19 21 24 28 32 36 39 41 42 42 43 44 44 44 45 46 44 43 43 42 41 39 31 29 32 34 35 35 35 36 36 36 35 35 37 38 36 34 33 31 30 28 25 23 21 19 18 18 17 17 18 18 19 21 23 22 20 20 19 19 18 17 18 20 22 24 26 26 26 25 24 22 20 18 15 13 12 11 9 9 10 13 15 16 16 15 12 10 8 6
11 11 12 13 14 15 16 16 17 18 22 26 29 33 36 38 39 40 43 43 42 44 46 46 44 43 41 39 39 35 31 33 36 37 35 32 33 35 34 34 36 37 38 37 35 34 33 31 29 26 23 21 19 17 16 15 15 16 16 16 18 21 21 19 19 18 19 21 21 23 24 26 27 27 27 26 24 23 22 19 17 15 14 13 12 10 11 14 17 20 20 21 20 18 15 11 6
10 10 10 11 12 13 13 13 14 15 18 20 23 26 28 31 34 37 40 42 43 44 46 48 45 43 41 39 38 35 34 37 37 37 37 36 37 37 34 34 35 34 35 35 34 34 34 32 29 26 23 20 18 16 15 13 13 13 13 13 15 19 20 19 19 19 19 21 23 25 25 25 25 25 25 24 23 22 20 18 16 15 15 14 13 12 12 14 16 17 18 18 18 18 17 14 10
9 9 9 8 9 10 10 10 12 14 15 17 19 21 23 25 27 29 34 38 43 44 45 48 45 41 39 37 39 36 34 39 39 36 37 37 36 35 34 34 34 31 31 32 33 34 33 31 29 26 23 20 18 16 14 12 11 12 11 11 13 16 18 18 19 19 19 20 22 23 23 23 22 22 22 22 22 21 19 17 16 15 16 16 14 12 11 12 13 13 13 13 13 13 14 14 13
8 8 8 8 9 9 8 9 10 12 14 16 17 17 19 22 22 24 28 33 39 42 44 47 44 41 38 35 38 36 31 35 37 33 35 37 36 35 34 35 35 32 29 29 30 31 31 30 28 26 23 21 18 16 12 10 10 10 10 9 10 12 15 17 17 19 19 18 19 20 21 20 19 19 19 20 19 18 17 16 16 16 16 15 13 10 10 10 10 9 8 9 10 10 11 12 12
7 8 8 8 8 8 9 10 10 11 12 14 15 15 16 18 19 21 25 27 32 37 41 44 43 42 40 36 37 35 30 30 32 29 32 37 40 40 38 35 33 32 29 27 26 27 29 29 26 24 23 21 18 14 11 9 8 9 8 6 7 9 11 15 17 18 19 19 18 17 18 18 17 17 17 16 16 15 15 15 15 15 15 14 13 11 10 10 11 10 10 10 11 10 11 12 13
7 9 9 7 7 8 10 10 9 9 10 11 13 14 15 16 18 20 22 23 25 31 36 39 40 41 40 38 36 35 33 33 33 31 35 40 43 42 39 36 34 32 30 28 27 27 29 27 23 22 23 22 18 13 10 8 7 7 6 4 3 4 7 12 16 17 18 18 17 17 17 16 16 16 14 13 12 11 12 13 14 14 15 14 12 11 9 9 10 10 11 11 12 11 12 14 15
7 8 8 7 6 8 10 9 7 6 7 10 11 13 15 15 17 19 21 21 22 26 31 33 34 36 38 38 36 36 38 42 42 39 39 42 43 40 38 38 38 36 34 32 30 29 29 26 22 22 22 21 17 13 10 8 7 7 5 3 1 0 3 8 13 15 15 15 15 14 14 14 15 14 12 11 9 9 9 11 12 12 13 13 12 11 9 9 10 10 10 12 13 13 14 15 16
6 6 6 6 6 7 9 7 4 4 6 9 10 12 15 15 16 19 21 21 21 23 27 29 28 29 34 36 35 35 37 42 44 40 37 38 40 40 38 38 40 39 38 35 31 29 29 26 23 22 20 19 17 13 10 9 8 7 6 4 3 2 1 3 5 8 11 13 14 13 10 10 11 12 11 10 8 7 8 9 10 10 12 12 11 10 9 10 11 11 11 12 13 14 14 15 15
4 5 5 5 6 7 8 7 3 3 5 8 10 12 14 14 15 18 21 22 21 21 24 27 28 29 30 31 33 35 34 37 41 40 38 36 38 41 41 40 40 40 40 36 33 33 30 27 25 23 20 19 18 14 11 11 10 9 7 5 4 3 2 2 2 3 5 10 12 13 12 9 9 10 10 9 8 6 5 6 7 8 10 10 10 10 10 11 11 11 11 12 13 13 13 14 15
4 4 4 5 6 6 6 5 3 2 4 6 10 13 14 13 15 17 19 22 22 20 21 24 27 29 29 28 31 35 32 31 37 40 40 39 40 42 43 43 41 40 40 38 38 39 35 30 28 25 22 20 18 14 12 12 12 11 9 6 4 2 2 1 3 6 5 7 9 11 12 11 11 11 11 10 9 7 5 5 6 7 7 8 9 10 10 10 10 10 10 10 12 13 13 14 16
6 6 5 5 6 7 6 4 3 4 5 7 10 11 11 12 15 17 18 20 22 21 20 21 23 24 26 27 30 34 33 30 33 38 40 43 44 44 44 43 40 38 39 40 41 42 39 34 30 27 24 22 19 16 15 15 14 12 10 7 4 3 3 2 4 8 7 5 6 9 11 11 12 13 13 13 11 9 7 5 6 6 6 6 8 9 10 9 8 8 8 9 10 11 11 13 14
9 8 7 6 7 8 7 6 5 6 6 7 9 9 8 9 12 16 17 18 21 22 21 21 22 22 25 27 28 30 32 32 34 37 39 42 43 43 43 41 38 38 39 40 41 40 39 35 31 28 26 23 21 18 18 17 15 14 12 10 7 5 5 5 5 7 8 7 7 9 10 8 7 8 9 10 11 10 8 6 5 6 6 6 7 7 8 9 9 8 8 8 9 9 10 11 13
11 11 10 9 9 9 9 8 8 7 6 7 8 8 8 7 8 13 17 17 16 19 21 22 23 25 24 24 27 28 29 31 34 37 40 42 42 43 44 41 39 40 40 41 40 38 37 35 32 29 26 25 23 21 21 19 17 17 16 14 11 7 6 6 6 6 8 8 8 9 10 8 6 5 5 7 9 8 8 7 5 3 5 8 9 8 8 9 10 10 9 10 10 10 9 10 11
15 15 14 12 12 12 11 10 10 10 9 8 8 8 8 7 6 10 14 15 13 15 19 22 24 25 24 24 26 29 29 30 31 32 36 40 42 43 44 43 42 41 41 42 39 36 35 34 32 29 26 25 25 24 23 21 20 21 20 16 13 11 8 8 8 8 8 9 9 9 10 9 7 6 4 6 7 7 6 5 4 3 2 7 9 10 10 9 10 11 11 12 12 11 10 9 9
19 18 17 16 15 15 14 13 14 14 13 12 11 8 7 5 5 7 10 13 14 14 17 21 23 24 25 25 25 27 29 29 29 30 33 37 39 41 43 43 42 41 42 42 39 36 34 33 31 29 26 26 26 26 26 24 23 23 22 18 16 14 11 10 11 10 9 9 9 10 11 11 10 8 6 3 5 5 4 4 3 2 1 3 7 11 12 11 11 12 13 13 13 13 12 11 10
22 20 21 21 20 18 18 17 17 17 17 16 13 10 8 6 5 7 9 11 13 14 15 19 21 22 22 23 24 25 27 27 27 29 32 34 38 41 43 43 42 41 42 42 39 35 34 32 30 30 29 27 26 26 27 28 26 25 24 22 21 19 15 13 13 12 10 10 10 10 11 11 9 9 9 7 5 4 2 1 2 1 2 3 5 9 12 14 14 14 14 15 15 14 14 13 12
24 23 24 25 23 22 21 21 21 21 20 19 16 13 11 9 7 7 9 10 11 13 15 16 17 19 19 19 20 22 25 27 26 26 29 33 36 40 42 43 44 43 42 41 38 36 34 31 31 33 33 27 23 24 28 30 29 27 26 26 25 23 19 16 15 14 12 10 11 11 11 10 9 9 9 9 7 3 0 2 3 6 7 6 5 8 11 13 15 16 17 17 17 16 15 15 14
27 27 29 28 25 25 25 25 25 24 23 22 20 18 16 12 9 7 7 10 11 13 14 14 13 14 15 15 16 19 24 27 26 25 26 29 33 37 41 44 47 47 44 41 39 36 35 33 32 34 33 27 24 27 32 34 31 29 29 29 28 27 22 18 17 16 14 13 13 13 13 11 11 10 8 8 7 5 5 5 5 7 8 7 8 11 13 13 15 18 20 19 18 18 17 16 16
29 30 30 28 27 28 29 30 28 27 27 25 24 23 20 14 11 8 7 9 12 13 15 16 15 14 14 14 15 18 23 26 26 26 26 27 31 35 39 44 48 49 47 43 39 37 36 35 33 34 33 30 31 34 38 37 34 32 32 32 31 29 24 21 19 18 16 14 14 15 15 12 11 11 10 7 6 6 8 9 8 8 9 9 11 14 15 14 14 17 20 20 20 19 18 18 17
30 29 29 29 29 31 32 31 31 30 29 28 28 28 23 17 15 12 10 10 13 14 15 17 17 16 16 16 16 17 20 24 25 27 28 28 30 33 38 42 46 47 47 43 41 40 40 38 38 40 40 37 37 39 40 39 36 35 36 35 33 30 26 24 21 20 18 15 14 16 16 15 13 13 11 9 7 7 7 8 9 11 12 12 15 16 16 15 13 15 18 19 21 20 20 19 18
Wind_Direction
202 201 207 208 210 212 212 214 214 211 214 224 224 227 241 254 254 254 255 251 253 258 259 258 254 250 247 248 255 265 274 273 295 316 322 323 331 338 332 330 328 323 325 331 337 345 346 342 339 338 339 338 338 337 336 335 332 330 331 332 331 336 338 336 336 335 328 320 313 310 316 332 343 351 347 324 328 336 332 355 5 17 27 26 19 15 14 15 18 16 8 7 6 2 5 9 8
188 191 198 200 200 202 205 204 206 205 207 224 226 231 243 259 263 259 254 248 250 252 251 248 241 237 235 239 247 265 277 273 292 318 325 329 340 342 334 329 326 324 327 330 337 346 348 345 342 340 339 339 338 338 341 341 336 332 332 332 330 335 339 339 341 341 334 330 318 308 313 328 1 359 348 323 324 321 333 356 2 15 22 21 17 15 15 15 16 10 2 1 357 356 352 357 359
169 183 191 194 195 195 198 197 199 200 202 216 218 226 227 238 252 251 248 246 247 245 241 236 230 226 227 237 244 261 276 278 297 318 323 333 345 344 336 329 324 323 329 331 336 342 344 346 345 341 338 339 339 340 343 344 340 336 337 333 328 330 333 339 344 343 341 342 330 310 310 322 16 359 319 300 313 315 321 343 357 12 18 17 15 15 14 15 14 5 358 354 345 348 343 346 349
171 181 188 189 189 186 189 190 193 194 199 204 200 209 208 227 240 242 248 246 243 239 233 229 221 218 221 236 245 262 279 287 301 312 318 338 352 347 336 328 323 323 329 333 336 340 343 345 343 340 339 339 338 341 341 343 343 341 344 332 324 322 322 334 345 349 347 351 342 324 311 310 358 335 289 288 301 304 308 339 352 7 18 14 13 13 11 14 11 360 354 346 333 336 335 337 340
180 185 190 184 182 182 186 186 187 190 198 206 209 208 192 219 242 244 250 243 239 234 225 222 217 219 224 239 249 267 286 299 306 312 321 339 352 346 335 326 323 324 328 333 339 343 344 342 341 340 339 340 340 342 340 342 346 345 347 335 327 321 317 328 338 347 351 352 344 334 322 310 304 275 279 283 287 304 312 334 343 0 14 11 11 11 9 11 6 356 350 338 328 328 328 331 333
191 192 188 185 185 188 194 189 187 190 195 205 212 211 196 212 243 248 246 235 230 226 220 219 218 225 231 246 256 273 291 303 307 311 322 337 342 340 336 326 324 326 325 331 342 345 343 341 340 341 342 344 343 343 341 343 350 350 344 337 335 325 314 319 326 334 346 354 340 333 323 309 282 266 277 276 281 320 314 323 339 357 6 6 9 9 8 6 360 352 345 331 327 325 322 325 329
203 196 188 193 197 194 197 193 189 195 202 207 208 213 211 209 230 241 232 220 217 222 225 225 225 231 236 246 258 275 291 300 302 306 321 334 332 332 335 327 323 324 323 331 343 344 342 341 341 342 345 347 345 342 342 343 350 350 340 332 330 320 312 312 315 318 330 347 339 326 321 313 283 266 267 268 284 305 310 330 349 355 358 3 5 6 5 3 357 349 337 324 325 324 320 325 330
214 208 201 204 205 195 197 199 196 203 209 205 204 215 218 205 209 222 217 211 214 228 235 236 237 240 240 245 258 274 288 297 302 307 320 329 328 328 329 325 321 321 322 331 341 342 341 342 342 343 345 346 344 340 340 340 342 344 339 332 325 319 316 313 311 310 314 327 329 320 323 325 278 263 262 268 283 300 328 343 354 359 356 360 1 360 1 2 357 345 328 317 322 323 320 326 329
221 221 218 208 201 193 195 204 202 208 210 198 195 206 213 201 201 216 216 210 210 230 239 241 244 246 244 244 255 271 284 294 302 306 316 325 327 326 326 323 320 322 323 330 337 338 341 342 343 342 343 344 341 337 337 338 337 338 337 335 331 326 322 315 305 301 295 304 316 322 327 309 260 264 271 281 290 312 350 343 356 6 355 354 354 353 355 2 360 345 318 312 321 321 319 324 327
221 222 221 212 206 200 197 202 203 211 213 204 202 206 206 193 201 216 218 213 209 223 235 241 247 250 248 247 257 272 284 290 297 303 314 323 326 327 327 325 324 326 324 328 333 336 339 342 344 341 341 344 339 334 334 336 337 338 338 337 335 331 324 317 296 280 278 286 304 323 311 258 255 266 279 299 305 313 339 340 4 3 348 348 346 346 350 359 359 346 305 306 321 322 323 327 331
220 220 220 218 218 215 203 199 203 211 211 210 213 215 209 194 209 220 220 220 217 222 230 239 244 246 247 248 257 271 284 290 294 299 310 320 325 326 326 326 327 327 323 326 331 335 339 342 345 343 342 344 341 335 335 336 337 340 341 338 334 333 329 327 300 273 270 274 290 301 269 254 266 275 284 301 307 307 310 321 347 349 341 344 341 339 343 352 355 346 285 298 328 330 331 334 342
222 222 224 225 222 220 213 208 208 210 208 211 216 217 208 198 217 225 221 223 225 229 230 236 241 243 250 253 259 270 280 288 291 294 304 314 320 324 325 327 327 326 322 325 330 335 340 342 344 344 344 346 345 341 340 341 340 340 341 338 335 335 334 335 320 293 273 261 268 262 252 256 269 278 286 295 297 298 291 304 323 332 341 345 337 333 337 345 351 347 266 291 341 338 338 344 356
225 224 226 228 224 222 222 220 218 216 213 215 216 215 205 200 220 228 224 224 228 232 231 236 245 247 251 255 262 269 274 280 286 290 296 304 311 317 321 324 325 324 323 325 329 334 340 342 343 344 345 346 346 345 346 345 343 340 339 340 340 337 334 335 326 309 285 247 249 258 251 260 278 286 293 293 292 299 300 309 322 327 337 338 330 328 333 341 347 348 257 284 346 336 340 355 6
228 226 226 227 225 225 226 225 225 223 221 222 220 217 210 208 223 230 228 228 230 235 236 240 249 251 251 256 263 267 270 273 278 285 290 297 303 308 312 316 319 322 324 326 329 333 339 342 343 344 346 345 345 346 345 345 344 340 339 341 342 336 328 329 326 308 282 230 224 250 255 266 287 291 291 292 293 308 315 324 334 331 326 324 321 321 328 336 345 349 259 276 337 342 356 8 9
229 229 228 228 226 226 226 226 227 225 224 226 224 220 217 216 224 230 231 233 234 238 240 241 250 254 254 258 264 268 268 269 273 282 288 292 297 300 303 309 316 323 325 327 330 333 337 341 342 345 345 345 344 342 341 343 344 343 340 339 338 334 326 325 324 308 280 240 224 237 254 264 280 286 288 293 295 296 298 314 330 332 327 322 315 313 321 333 343 348 237 257 327 354 12 14 11
230 230 230 230 227 226 226 225 227 226 225 227 228 225 222 222 225 230 234 236 236 238 239 243 254 256 255 260 262 264 264 264 270 280 287 288 291 294 297 305 314 325 329 329 331 333 335 339 342 344 343 343 343 340 341 344 346 344 340 337 336 333 329 325 320 308 290 258 243 247 255 258 271 286 292 292 280 261 272 296 310 324 333 328 315 308 317 332 343 348 194 242 319 353 9 14 14
230 230 230 231 229 227 227 227 226 227 227 228 230 229 228 226 227 231 236 239 237 239 242 243 251 255 257 260 259 258 258 262 269 277 285 284 287 292 294 301 313 326 331 330 331 333 334 336 340 342 341 341 343 342 342 345 346 345 339 338 337 332 328 323 316 308 295 261 249 258 261 254 262 284 298 283 251 245 273 295 301 323 338 330 319 314 320 335 341 336 189 255 338 4 10 17 17
231 230 230 230 230 229 228 228 228 228 229 229 230 231 232 231 231 232 235 240 239 239 243 240 245 256 258 255 254 257 260 265 269 274 280 281 281 287 291 296 309 324 331 331 331 332 333 334 338 340 340 340 343 343 343 344 346 346 341 340 339 332 328 323 313 305 295 263 246 253 260 256 257 272 285 274 244 249 274 290 304 333 335 326 326 329 330 337 337 287 202 296 2 12 14 21 20
231 230 231 231 230 230 230 229 229 230 230 231 231 232 234 235 235 235 234 238 239 237 238 238 243 254 254 249 251 257 262 265 266 269 273 276 277 282 288 292 303 317 326 330 330 330 332 332 334 338 339 340 342 344 343 343 346 348 342 341 340 334 331 326 313 305 299 278 257 250 251 256 257 258 267 271 270 276 279 287 312 324 322 321 329 333 332 334 336 231 222 323 10 10 13 24 25
233 231 231 231 230 230 231 231 231 231 231 232 232 233 235 236 238 239 236 238 240 238 238 238 239 242 247 254 257 257 259 261 262 264 267 270 273 278 285 289 296 307 317 325 327 327 329 330 331 335 337 338 341 344 343 343 347 349 343 341 342 337 333 329 317 310 305 293 276 261 249 248 251 250 254 262 268 277 270 276 294 304 313 316 319 326 328 336 349 192 226 333 13 12 15 25 31
235 233 232 231 230 230 231 231 231 231 232 232 233 234 235 236 238 240 239 240 241 239 240 240 239 239 246 260 266 263 258 257 259 262 265 266 269 274 281 285 289 300 309 318 323 324 325 327 330 332 334 336 340 343 344 344 347 349 346 342 343 339 334 330 321 315 310 298 282 269 256 242 241 236 237 246 255 264 266 275 286 298 308 305 306 316 322 338 21 154 208 346 16 12 11 22 33
236 235 234 232 230 229 230 230 231 231 232 232 233 233 235 235 236 239 238 238 239 240 241 241 242 243 248 261 271 272 260 253 256 260 263 265 266 269 275 281 286 295 302 310 316 319 322 324 327 329 332 334 339 343 344 345 347 349 347 343 344 342 336 330 325 322 314 303 291 274 258 245 240 234 233 243 255 264 272 281 289 299 300 289 296 308 315 331 100 170 244 321 7 2 358 19 32
236 236 235 235 233 231 230 230 230 231 232 232 233 233 234 234 235 237 238 238 239 241 243 243 245 248 253 258 266 274 265 254 256 260 263 264 265 266 271 277 283 290 297 304 310 315 318 321 324 327 330 333 337 342 344 345 349 350 346 344 346 345 338 331 328 326 318 311 305 286 264 250 247 248 247 251 259 264 272 283 290 294 287 280 294 302 305 293 184 207 259 321 352 354 2 24 30
238 237 236 235 234 233 232 231 231 230 231 232 233 233 233 233 235 236 237 238 238 239 243 245 249 252 254 255 258 268 269 261 259 260 262 264 266 267 270 274 279 286 292 299 305 310 314 317 321 325 329 333 336 341 343 344 349 351 347 346 349 348 344 335 328 323 315 309 302 286 270 258 255 257 258 262 267 267 271 279 286 285 274 280 291 292 293 224 186 209 228 337 345 356 20 34 27
241 240 238 236 235 234 234 233 233 232 232 232 232 233 233 233 234 235 236 238 238 239 243 245 250 254 254 252 251 257 264 265 263 262 262 264 267 270 272 274 278 283 288 295 301 306 310 313 319 322 327 331 335 340 343 344 347 350 348 349 350 352 352 342 329 323 314 302 290 279 270 262 256 255 259 264 268 272 275 277 280 272 266 279 281 280 275 208 190 193 180 351 346 6 24 25 18
243 242 240 238 237 236 235 235 234 233 233 232 232 233 233 233 234 235 235 238 238 238 242 244 250 256 253 249 247 248 255 261 263 265 265 265 267 270 273 276 279 282 286 291 297 301 305 310 315 319 324 330 335 339 343 344 346 349 349 350 351 354 354 344 333 326 316 300 284 275 269 264 257 257 263 264 264 268 271 270 266 260 267 275 271 267 227 193 190 178 95 353 351 10 14 10 13
245 243 242 240 239 237 236 235 234 234 233 232 232 232 233 233 234 234 234 236 237 236 237 240 247 252 250 247 247 249 253 258 262 264 265 265 266 269 273 277 279 281 284 288 293 297 301 306 312 314 321 329 333 338 342 344 346 349 350 349 351 353 353 345 338 330 315 301 291 284 282 280 278 275 269 260 253 251 252 251 251 260 269 269 267 241 179 175 181 175 157 48 360 2 6 4 15
248 246 244 241 239 237 236 235 235 234 234 233 233 232 232 233 234 234 234 234 235 236 234 232 235 243 247 247 248 251 254 257 261 262 262 263 265 268 272 275 277 279 282 286 290 294 298 303 309 311 317 326 331 336 341 344 346 350 351 351 352 353 353 349 347 343 325 306 299 301 311 302 289 278 264 250 240 237 234 236 252 263 261 262 259 184 157 162 168 163 152 97 41 23 8 348 360
249 248 245 243 240 238 236 235 235 235 234 235 234 234 233 232 233 233 233 233 232 234 233 229 231 239 244 245 246 249 251 255 259 259 259 262 265 268 270 272 274 278 281 285 288 292 296 301 308 310 314 324 330 334 340 343 345 350 353 354 355 355 355 355 356 353 332 305 291 290 290 278 267 260 252 240 232 229 229 241 253 249 245 248 192 152 146 147 146 132 58 22 21 21 6 341 350
250 248 246 244 242 240 238 235 235 235 234 235 235 235 234 232 232 232 232 232 230 230 231 229 232 238 242 243 243 244 249 255 257 256 258 262 264 266 268 270 272 275 278 282 286 290 294 300 307 309 313 322 329 332 338 343 345 350 354 356 359 358 358 360 1 358 336 296 273 259 244 241 243 240 235 229 227 226 230 234 229 226 230 191 151 144 140 136 126 56 8 358 354 344 342 348 355
250 248 246 244 243 242 240 237 236 235 234 235 234 235 235 233 231 232 232 231 230 228 228 229 232 237 241 242 241 243 248 253 253 254 258 260 263 265 266 269 270 272 276 279 283 287 291 298 305 307 311 320 327 332 337 342 345 350 354 356 360 1 1 3 4 2 351 306 267 242 226 223 222 224 215 204 205 205 205 204 210 216 181 150 138 135 132 133 127 25 330 329 332 318 324 350 358
250 248 246 244 243 242 242 240 237 236 235 234 234 234 236 235 232 231 231 231 231 229 228 230 233 235 239 240 240 240 241 244 249 255 257 257 260 263 265 268 269 270 273 276 280 283 287 295 302 304 309 317 325 330 335 341 345 350 355 357 360 2 4 6 9 7 3 348 290 234 218 217 217 217 199 182 185 187 193 203 204 169 142 133 124 122 125 128 126 315 309 314 315 308 319 348 355
251 249 247 246 245 243 242 241 238 238 236 235 233 233 235 236 233 231 230 229 231 231 229 229 231 234 238 241 241 240 238 241 248 253 253 254 257 261 264 266 267 268 271 273 277 280 284 291 298 300 306 314 322 328 333 339 344 350 356 358 1 4 6 10 16 17 17 24 23 199 201 208 211 206 192 184 187 194 202 192 155 134 125 118 115 115 114 108 58 317 313 310 303 305 324 349 358
253 251 249 247 246 245 244 242 240 239 238 235 235 234 235 236 235 233 231 230 231 232 230 229 231 234 239 242 242 244 244 244 246 247 250 253 256 259 261 261 263 267 269 270 273 277 281 287 293 296 301 310 318 325 331 338 343 349 356 359 1 5 9 14 21 26 29 43 56 89 148 169 182 183 180 180 184 187 168 141 127 120 115 112 112 107 99 83 25 327 320 306 296 307 321 356 11
253 252 251 248 247 246 245 244 242 240 238 237 236 236 236 236 236 234 232 231 232 232 229 229 230 233 236 239 242 245 245 243 243 245 249 253 254 255 255 256 261 265 266 267 270 274 278 283 288 292 298 306 315 323 329 336 342 349 357 1 1 5 12 18 26 33 37 48 60 81 116 135 149 152 153 155 151 142 129 121 116 112 111 109 106 100 92 73 51 29 5 344 313 311 315 8 75
254 252 251 250 247 246 245 244 243 241 240 238 237 237 236 236 236 235 233 231 233 232 229 228 230 231 232 234 239 243 245 244 245 248 247 246 248 250 254 257 259 260 263 265 268 271 275 280 283 288 294 302 311 320 327 333 340 348 357 3 3 7 15 22 30 40 46 53 64 81 103 114 122 124 124 126 124 120 115 111 109 108 107 104 100 94 84 74 67 47 25 18 346 321 318 78 128
255 253 253 252 248 246 244 243 241 240 239 236 235 235 234 235 234 235 233 231 232 233 230 228 229 232 231 231 232 240 247 247 246 246 244 244 247 249 252 256 257 257 259 262 266 268 272 275 279 284 289 297 307 316 323 330 337 346 357 6 8 11 19 27 35 47 57 63 73 84 97 104 108 112 113 114 113 110 107 106 106 105 102 97 94 89 81 73 68 61 59 60 59 67 74 109 131
258 259 259 258 255 252 249 244 239 237 236 233 233 233 232 233 233 234 232 229 230 231 230 227 227 231 233 231 229 232 241 244 244 245 246 247 245 245 248 251 254 256 256 259 262 264 268 271 274 280 284 292 302 310 318 325 334 344 356 6 11 16 23 31 39 52 64 71 81 90 98 104 106 108 109 108 107 106 105 105 104 100 97 94 92 89 84 84 84 83 81 79 78 79 85 102 123
259 260 263 263 262 258 253 248 240 235 233 231 231 232 233 232 232 233 233 230 228 228 227 227 228 231 234 232 228 227 230 235 239 244 246 243 238 239 242 247 252 255 255 257 259 261 263 267 271 276 280 287 296 303 311 318 328 341 355 7 14 20 27 36 44 56 69 77 88 98 102 105 106 106 106 106 106 105 105 104 101 98 96 96 95 93 95 100 99 94 86 81 77 75 78 83 89
253 254 259 264 266 265 262 256 247 238 233 230 229 229 229 229 229 230 231 231 228 225 224 225 228 231 232 232 227 225 227 227 234 244 244 239 238 238 236 241 248 253 254 254 255 258 260 263 267 272 276 282 289 294 301 309 320 337 353 8 18 23 30 42 50 59 73 83 93 101 104 106 106 106 106 106 105 105 104 102 100 99 98 98 102 106 110 113 111 104 93 83 75 70 70 70 72
253 259 264 267 269 270 269 260 250 240 232 228 227 227 224 222 223 223 225 228 227 224 222 223 227 228 228 230 228 225 228 228 233 242 240 236 237 235 232 240 246 248 252 252 252 255 257 260 263 267 271 276 281 286 293 300 313 333 349 9 23 27 34 46 56 63 75 88 95 101 103 104 105 106 105 105 104 104 104 102 101 101 99 105 114 118 119 121 121 116 102 83 71 67 68 67 68
254 263 268 270 270 270 267 260 248 238 232 227 222 221 222 219 216 214 216 223 225 223 221 221 226 226 224 228 228 223 224 227 230 236 238 236 236 236 239 244 245 241 243 247 249 251 254 258 259 262 265 268 274 277 282 291 307 327 342 7 27 33 40 52 64 71 77 88 96 100 103 103 102 102 102 103 103 104 103 100 101 101 101 111 123 125 121 119 113 107 95 80 77 79 79 74 70
250 259 265 267 270 273 270 266 254 240 232 226 217 212 218 218 213 212 212 218 222 221 219 220 224 224 220 222 225 221 216 221 230 234 233 235 237 242 246 243 238 234 234 239 243 247 253 255 254 257 258 260 264 265 267 277 294 317 336 3 30 42 50 60 73 81 84 88 95 102 104 104 102 100 99 100 102 103 102 99 100 101 103 114 127 132 128 114 96 86 83 82 84 88 90 87 83
252 263 270 269 270 273 271 267 256 241 226 216 210 204 208 212 210 210 209 211 217 217 215 217 221 220 216 216 221 222 217 218 225 228 229 235 241 245 242 236 235 234 233 236 240 245 248 246 247 251 253 255 253 246 251 262 276 299 325 353 29 56 66 73 76 82 88 90 94 100 103 104 103 101 100 100 99 100 99 99 100 102 106 114 126 135 137 121 99 83 76 77 79 83 85 86 88
273 277 284 288 289 283 275 268 253 231 211 199 198 198 200 203 204 207 207 206 210 212 212 214 218 219 216 216 220 222 220 219 223 226 230 235 238 240 237 234 235 234 232 236 242 244 238 236 244 248 248 251 243 232 238 247 260 278 292 311 312 118 101 90 75 69 77 84 89 93 97 103 105 103 103 101 96 94 94 96 100 104 109 115 125 133 135 122 103 83 76 80 84 86 87 86 87
299 300 306 313 317 304 288 277 247 211 201 190 188 193 197 199 203 207 206 203 205 209 210 211 213 215 215 216 218 218 218 218 219 222 225 229 234 236 234 233 232 231 230 234 239 235 229 234 244 243 244 244 232 223 229 234 245 259 265 275 274 257 203 130 83 61 70 81 88 89 89 97 106 107 105 103 98 93 92 96 103 110 114 118 124 128 124 111 97 84 82 87 89 92 93 92 92
309 317 326 333 333 318 299 291 265 209 203 199 201 203 204 206 210 210 207 203 203 209 212 210 209 209 209 211 214 215 217 220 220 219 220 227 236 234 230 230 232 232 230 233 235 230 230 240 242 240 242 236 224 221 224 226 236 247 251 262 276 267 246 204 162 133 97 94 98 95 85 85 102 109 107 109 107 100 100 102 108 117 120 122 125 126 119 108 97 87 88 93 95 95 95 95 96
297 306 321 331 328 317 300 295 294 250 231 232 228 218 210 213 217 216 212 207 206 209 211 212 213 211 208 209 214 214 213 218 223 221 216 219 229 233 232 232 232 231 231 232 231 230 236 243 240 238 239 231 224 224 224 225 232 242 246 253 268 248 224 205 165 175 155 115 110 102 92 93 103 105 103 107 110 112 122 129 127 128 128 127 131 133 125 113 102 93 96 102 101 99 97 97 98
284 288 298 306 308 309 300 290 289 275 268 267 257 236 221 223 222 219 217 212 211 211 209 212 216 212 209 211 215 214 209 211 219 222 219 217 223 231 233 231 229 229 232 230 227 230 237 240 235 232 232 229 225 224 224 223 227 236 242 244 248 228 219 236 186 184 180 148 129 118 112 108 102 98 96 96 98 103 112 132 148 150 148 143 147 148 140 128 117 106 108 115 112 106 104 104 104
269 270 274 278 287 297 296 287 288 288 281 277 276 260 238 232 224 221 225 226 222 218 214 217 216 210 210 214 216 213 211 213 218 223 223 219 219 222 225 227 228 228 229 228 229 233 234 233 231 229 226 225 224 224 224 221 221 229 236 236 236 234 229 223 189 178 186 182 160 141 136 131 114 106 99 93 92 94 96 101 135 162 178 181 176 175 167 151 138 131 130 134 131 123 117 114 112
259 260 261 265 274 281 283 286 293 292 279 270 271 261 246 242 228 224 231 235 228 219 217 221 220 213 211 215 215 211 207 211 217 221 223 223 222 222 225 228 228 226 227 229 230 230 229 228 230 229 226 223 222 225 224 220 219 222 228 236 237 239 230 209 189 184 192 193 185 166 157 155 149 142 121 103 95 90 91 89 96 141 192 206 202 201 195 175 161 157 155 155 153 144 135 131 125
255 256 257 257 262 267 269 276 281 278 272 265 262 252 244 251 247 234 235 233 225 218 215 218 222 221 217 214 213 209 207 212 218 221 223 225 226 226 226 226 225 224 228 230 227 224 225 227 228 228 225 221 223 227 225 222 224 223 227 235 236 231 223 212 209 209 204 206 208 198 184 179 178 171 152 115 96 85 86 87 80 93 193 223 217 210 205 195 185 178 172 169 168 165 160 156 151
259 259 261 258 256 258 261 266 270 270 269 265 263 260 254 258 261 248 242 237 230 226 221 218 221 222 220 221 218 211 208 212 218 222 226 228 228 226 223 222 224 227 228 228 225 224 223 224 225 225 223 222 225 230 229 225 226 229 231 234 234 230 221 216 223 224 221 224 219 210 203 201 197 191 188 160 112 96 87 90 88 76 39 258 233 217 213 213 205 194 187 183 178 178 181 180 179
263 265 265 262 258 257 259 262 264 266 267 265 264 265 258 254 255 240 235 234 230 229 223 217 217 214 215 224 225 218 214 212 215 222 227 229 228 225 224 224 227 228 227 225 223 222 223 225 227 222 220 222 223 228 230 225 225 231 233 232 234 234 224 215 224 229 232 236 228 220 218 215 212 203 198 197 168 120 86 125 167 235 299 289 247 222 218 219 214 207 204 199 193 191 192 191 193
264 265 264 262 262 262 262 262 262 264 265 265 263 261 255 248 238 218 220 228 226 223 217 208 209 211 213 223 228 226 221 214 217 225 226 228 228 225 223 223 223 222 221 221 220 224 228 227 222 215 215 221 225 229 231 228 229 233 232 232 234 233 225 213 216 220 221 231 233 229 232 233 231 218 198 198 195 171 266 258 232 241 254 272 269 244 233 226 220 216 212 209 208 207 205 205 207
263 262 260 260 262 263 261 259 260 260 261 261 260 258 254 248 241 217 213 231 228 222 217 207 210 216 217 221 225 224 220 216 221 227 226 228 230 227 222 218 217 218 219 221 224 229 231 224 216 215 218 224 227 227 228 230 235 235 230 231 233 232 227 214 210 212 214 227 236 238 242 243 241 235 213 202 213 227 249 251 238 234 237 252 269 262 250 239 227 220 218 219 220 217 216 217 218
264 262 260 260 263 263 261 258 258 258 260 260 259 257 252 248 247 230 214 224 223 220 215 208 211 214 212 219 227 227 221 219 226 227 223 226 230 230 226 218 216 219 222 226 227 226 226 220 217 218 218 223 226 224 226 231 233 231 229 231 231 230 228 219 213 213 215 224 235 241 245 242 236 237 232 223 234 252 249 236 230 237 231 230 247 255 250 244 235 227 226 229 228 226 225 226 225
267 266 263 260 261 261 259 259 259 258 258 258 256 257 255 248 243 233 216 209 211 215 211 207 210 210 207 213 226 236 230 225 228 226 224 231 233 232 229 222 219 222 224 226 225 223 223 221 220 216 212 219 226 224 224 226 227 227 227 229 229 228 226 225 225 224 219 221 231 238 240 235 230 233 236 238 245 259 257 236 230 238 234 226 234 242 241 241 241 236 234 233 231 232 234 235 236